"Period start","avg(HW err(1)/warn(2) (#))","avg(Visibility (m))","avg(Weather code (#))","avg(Precip intensity (mm/h))","min(HW err(1)/warn(2) (#))","max(HW err(1)/warn(2) (#))","std(HW err(1)/warn(2) (#))","med(HW err(1)/warn(2) (#))","min(Visibility (m))","max(Visibility (m))","std(Visibility (m))","med(Visibility (m))","min(Weather code (#))","max(Weather code (#))","std(Weather code (#))","med(Weather code (#))","min(Precip intensity (mm/h))","max(Precip intensity (mm/h))","std(Precip intensity (mm/h))","med(Precip intensity (mm/h))"
2014-05-09 00:00:00,2,12558,6,0.00,2,2,0,2,9476,18545,2381,11965,0,10,5,10,0.00,0.00,0.00,0.00
2014-05-09 00:10:00,2,9957,0,0.00,2,2,0,2,8711,12471,1288,9442,0,0,0,0,0.00,0.00,0.00,0.00
2014-05-09 00:20:00,2,8407,4,0.00,2,2,0,2,6197,10497,1324,8214,0,10,5,0,0.00,0.00,0.00,0.00
2014-05-09 00:30:00,2,15128,8,0.00,2,2,0,2,9186,25412,5656,13070,0,10,4,10,0.00,0.00,0.00,0.00
2014-05-09 00:40:00,2,8706,3,0.00,2,2,0,2,6186,10893,1518,8952,0,10,5,0,0.00,0.00,0.00,0.00
2014-05-09 00:50:00,2,12031,10,0.00,2,2,0,2,8102,19714,3355,12104,10,10,0,10,0.00,0.00,0.00,0.00
2014-05-09 01:00:00,2,20721,0,0.00,2,2,0,2,16815,33494,4717,19054,0,0,0,0,0.00,0.00,0.00,0.00
2014-05-09 01:10:00,2,16532,0,0.00,2,2,0,2,10935,26884,4032,15614,0,0,0,0,0.00,0.00,0.00,0.00
2014-05-09 01:20:00,2,20860,0,0.00,2,2,0,2,8681,36402,9604,16719,0,0,0,0,0.00,0.00,0.00,0.00
2014-05-09 01:30:00,2,13889,0,0.00,2,2,0,2,3475,35550,9293,9592,0,0,0,0,0.00,0.00,0.00,0.00
2014-05-09 01:40:00,2,22778,0,0.00,2,2,0,2,11008,35596,6994,21720,0,0,0,0,0.00,0.00,0.00,0.00
2014-05-09 01:50:00,2,27976,0,0.00,2,2,0,2,11360,45673,9988,29018,0,0,0,0,0.00,0.00,0.00,0.00
2014-05-09 02:00:00,2,26207,0,0.00,2,2,0,2,15732,42085,7787,26159,0,0,0,0,0.00,0.00,0.00,0.00
2014-05-09 02:10:00,2,19462,0,0.00,2,2,0,2,14058,25901,3767,18382,0,0,0,0,0.00,0.00,0.00,0.00
2014-05-09 02:20:00,2,30472,0,0.00,2,2,0,2,22201,41635,6399,30312,0,0,0,0,0.00,0.00,0.00,0.00
2014-05-09 02:30:00,2,24808,0,0.00,2,2,0,2,17541,38314,6704,22103,0,0,0,0,0.00,0.00,0.00,0.00
2014-05-09 02:40:00,2,33542,0,0.00,2,2,0,2,26135,46572,6777,31464,0,0,0,0,0.00,0.00,0.00,0.00
2014-05-09 02:50:00,2,34472,0,0.00,2,2,0,2,23591,50000,8559,31298,0,0,0,0,0.00,0.00,0.00,0.00
2014-05-09 03:00:00,2,40951,0,0.00,2,2,0,2,22433,50000,8434,43536,0,0,0,0,0.00,0.00,0.00,0.00
2014-05-09 03:10:00,2,34895,0,0.00,2,2,0,2,21882,50000,10526,34000,0,0,0,0,0.00,0.00,0.00,0.00
2014-05-09 03:20:00,2,36344,0,0.00,2,2,0,2,21696,47658,8051,34526,0,0,0,0,0.00,0.00,0.00,0.00
2014-05-09 03:30:00,2,34568,0,0.00,2,2,0,2,24860,50000,6250,33863,0,0,0,0,0.00,0.00,0.00,0.00
2014-05-09 03:40:00,2,32638,0,0.00,2,2,0,2,19348,49777,9540,32868,0,0,0,0,0.00,0.00,0.00,0.00
2014-05-09 03:50:00,2,32491,0,0.00,2,2,0,2,25720,45184,5219,31170,0,0,0,0,0.00,0.00,0.00,0.00
2014-05-09 04:00:00,2,23572,0,0.00,2,2,0,2,12882,33872,6110,25630,0,0,0,0,0.00,0.00,0.00,0.00
2014-05-09 04:10:00,2,19657,0,0.00,2,2,0,2,8549,30950,7285,18331,0,0,0,0,0.00,0.00,0.00,0.00
2014-05-09 04:20:00,2,33798,0,0.00,2,2,0,2,21307,50000,7877,33908,0,0,0,0,0.00,0.00,0.00,0.00
2014-05-09 04:30:00,2,31438,0,0.00,2,2,0,2,18793,46602,7752,29686,0,0,0,0,0.00,0.00,0.00,0.00
2014-05-09 04:40:00,2,35811,0,0.00,2,2,0,2,24122,50000,9117,35612,0,0,0,0,0.00,0.00,0.00,0.00
2014-05-09 04:50:00,2,34232,0,0.00,2,2,0,2,23568,47979,8323,34215,0,0,0,0,0.00,0.00,0.00,0.00
2014-05-09 05:00:00,2,30964,0,0.00,2,2,0,2,20506,38856,5223,31718,0,0,0,0,0.00,0.00,0.00,0.00
2014-05-09 05:10:00,2,34848,0,0.00,2,2,0,2,16195,50000,9654,34314,0,0,0,0,0.00,0.00,0.00,0.00
2014-05-09 05:20:00,2,34981,0,0.00,2,2,0,2,23198,48032,8648,34862,0,0,0,0,0.00,0.00,0.00,0.00
2014-05-09 05:30:00,2,38216,0,0.00,2,2,0,2,28563,43878,4457,38396,0,0,0,0,0.00,0.00,0.00,0.00
2014-05-09 05:40:00,2,36851,0,0.00,2,2,0,2,19770,50000,9325,38046,0,0,0,0,0.00,0.00,0.00,0.00
2014-05-09 05:50:00,2,36675,0,0.00,2,2,0,2,26931,48266,7627,33994,0,0,0,0,0.00,0.00,0.00,0.00
2014-05-09 06:00:00,2,32922,0,0.00,2,2,0,2,17151,50000,9907,33544,0,0,0,0,0.00,0.00,0.00,0.00
2014-05-09 06:10:00,2,36324,0,0.00,2,2,0,2,28277,49309,6070,34858,0,0,0,0,0.00,0.00,0.00,0.00
2014-05-09 06:20:00,2,40740,0,0.00,2,2,0,2,30780,50000,6870,38018,0,0,0,0,0.00,0.00,0.00,0.00
2014-05-09 06:30:00,2,33268,0,0.00,2,2,0,2,23379,50000,8303,31223,0,0,0,0,0.00,0.00,0.00,0.00
2014-05-09 06:40:00,2,38777,0,0.00,2,2,0,2,33267,50000,6140,36066,0,0,0,0,0.00,0.00,0.00,0.00
2014-05-09 06:50:00,2,43569,0,0.00,2,2,0,2,31763,50000,5426,44406,0,0,0,0,0.00,0.00,0.00,0.00
2014-05-09 07:00:00,2,32888,0,0.00,2,2,0,2,22414,45050,7613,32142,0,0,0,0,0.00,0.00,0.00,0.00
2014-05-09 07:10:00,2,34500,0,0.00,2,2,0,2,20392,50000,8986,33066,0,0,0,0,0.00,0.00,0.00,0.00
2014-05-09 07:20:00,2,32892,0,0.00,2,2,0,2,19730,50000,10691,27668,0,0,0,0,0.00,0.00,0.00,0.00
2014-05-09 07:30:00,2,36695,0,0.00,2,2,0,2,20158,50000,8174,38638,0,0,0,0,0.00,0.00,0.00,0.00
2014-05-09 07:40:00,2,36069,0,0.00,2,2,0,2,25138,46627,7339,37054,0,0,0,0,0.00,0.00,0.00,0.00
2014-05-09 07:50:00,2,35635,0,0.00,2,2,0,2,21386,50000,9204,34744,0,0,0,0,0.00,0.00,0.00,0.00
2014-05-09 08:00:00,2,31142,0,0.00,2,2,0,2,22376,47488,7497,30172,0,0,0,0,0.00,0.00,0.00,0.00
2014-05-09 08:10:00,2,38830,0,0.00,2,2,0,2,27708,50000,8689,40868,0,0,0,0,0.00,0.00,0.00,0.00
2014-05-09 08:20:00,2,29060,0,0.00,2,2,0,2,17786,50000,8393,28324,0,0,0,0,0.00,0.00,0.00,0.00
2014-05-09 08:30:00,2,35381,0,0.00,2,2,0,2,22525,50000,7357,32253,0,0,0,0,0.00,0.00,0.00,0.00
2014-05-09 08:40:00,2,40250,0,0.00,2,2,0,2,26871,50000,8705,38690,0,0,0,0,0.00,0.00,0.00,0.00
2014-05-09 08:50:00,2,32833,0,0.00,2,2,0,2,19119,40434,6200,34174,0,0,0,0,0.00,0.00,0.00,0.00
2014-05-09 09:00:00,2,43566,0,0.00,2,2,0,2,25593,50000,8292,49040,0,0,0,0,0.00,0.00,0.00,0.00
2014-05-09 09:10:00,2,33902,0,0.00,2,2,0,2,21766,49396,7649,32007,0,0,0,0,0.00,0.00,0.00,0.00
2014-05-09 09:20:00,2,35974,0,0.00,2,2,0,2,24994,45995,6948,36120,0,0,0,0,0.00,0.00,0.00,0.00
2014-05-09 09:30:00,2,36025,0,0.00,2,2,0,2,28408,48867,7321,31984,0,0,0,0,0.00,0.00,0.00,0.00
2014-05-09 09:40:00,2,40285,0,0.00,2,2,0,2,32415,49629,5585,41496,0,0,0,0,0.00,0.00,0.00,0.00
2014-05-09 09:50:00,2,40949,0,0.00,2,2,0,2,32710,49120,5769,41698,0,0,0,0,0.00,0.00,0.00,0.00
2014-05-09 10:00:00,2,40030,0,0.00,2,2,0,2,27651,50000,6794,40723,0,0,0,0,0.00,0.00,0.00,0.00
2014-05-09 10:10:00,2,42687,0,0.00,2,2,0,2,35290,50000,5742,41714,0,0,0,0,0.00,0.00,0.00,0.00
2014-05-09 10:20:00,2,43000,0,0.00,2,2,0,2,37234,49277,3935,42806,0,0,0,0,0.00,0.00,0.00,0.00
2014-05-09 10:30:00,2,42299,0,0.00,2,2,0,2,37760,47909,2815,42024,0,0,0,0,0.00,0.00,0.00,0.00
2014-05-09 10:40:00,2,43316,0,0.00,2,2,0,2,32334,50000,6307,45577,0,0,0,0,0.00,0.00,0.00,0.00
2014-05-09 10:50:00,2,43296,0,0.00,2,2,0,2,37855,50000,4563,42553,0,0,0,0,0.00,0.00,0.00,0.00
2014-05-09 11:00:00,2,45672,0,0.00,2,2,0,2,32785,49718,5292,48468,0,0,0,0,0.00,0.00,0.00,0.00
2014-05-09 11:10:00,2,47747,0,0.00,2,2,0,2,42648,50000,2667,49216,0,0,0,0,0.00,0.00,0.00,0.00
2014-05-09 11:20:00,2,45802,0,0.00,2,2,0,2,39027,50000,3783,46123,0,0,0,0,0.00,0.00,0.00,0.00
2014-05-09 11:30:00,2,45669,0,0.00,2,2,0,2,34790,50000,4367,47412,0,0,0,0,0.00,0.00,0.00,0.00
2014-05-09 11:40:00,2,47897,0,0.00,2,2,0,2,43078,50000,2320,48996,0,0,0,0,0.00,0.00,0.00,0.00
2014-05-09 11:50:00,2,46266,0,0.00,2,2,0,2,41851,50000,2844,46164,0,0,0,0,0.00,0.00,0.00,0.00
2014-05-09 12:00:00,2,44918,0,0.00,2,2,0,2,36385,50000,4080,45013,0,0,0,0,0.00,0.00,0.00,0.00
2014-05-09 12:10:00,2,47895,0,0.00,2,2,0,2,39959,50000,3092,49692,0,0,0,0,0.00,0.00,0.00,0.00
2014-05-09 12:20:00,2,48466,0,0.00,2,2,0,2,42173,50000,2298,49375,0,0,0,0,0.00,0.00,0.00,0.00
2014-05-09 12:30:00,2,44556,0,0.00,2,2,0,2,37835,50000,4262,45422,0,0,0,0,0.00,0.00,0.00,0.00
2014-05-09 12:40:00,2,46181,0,0.00,2,2,0,2,41066,50000,3423,46924,0,0,0,0,0.00,0.00,0.00,0.00
2014-05-09 12:50:00,2,48090,0,0.00,2,2,0,2,44556,50000,2053,48971,0,0,0,0,0.00,0.00,0.00,0.00
2014-05-09 13:00:00,2,45638,0,0.00,2,2,0,2,41182,50000,3241,44062,0,0,0,0,0.00,0.00,0.00,0.00
2014-05-09 13:10:00,2,46157,0,0.00,2,2,0,2,36728,50000,4791,48898,0,0,0,0,0.00,0.00,0.00,0.00
2014-05-09 13:20:00,2,47456,0,0.00,2,2,0,2,43603,50000,2280,48049,0,0,0,0,0.00,0.00,0.00,0.00
2014-05-09 13:30:00,2,45566,0,0.00,2,2,0,2,40171,50000,3578,45322,0,0,0,0,0.00,0.00,0.00,0.00
2014-05-09 13:40:00,2,47963,0,0.00,2,2,0,2,45299,50000,1662,47592,0,0,0,0,0.00,0.00,0.00,0.00
2014-05-09 13:50:00,2,47297,0,0.00,2,2,0,2,43374,50000,2489,47307,0,0,0,0,0.00,0.00,0.00,0.00
2014-05-09 14:00:00,2,47807,0,0.00,2,2,0,2,40233,50000,3195,49332,0,0,0,0,0.00,0.00,0.00,0.00
2014-05-09 14:10:00,2,48489,0,0.00,2,2,0,2,42289,50000,2290,49472,0,0,0,0,0.00,0.00,0.00,0.00
2014-05-09 14:20:00,2,45942,0,0.00,2,2,0,2,38549,50000,3164,46116,0,0,0,0,0.00,0.00,0.00,0.00
2014-05-09 14:30:00,2,47756,0,0.00,2,2,0,2,42922,50000,2477,48732,0,0,0,0,0.00,0.00,0.00,0.00
2014-05-09 14:40:00,2,48297,0,0.00,2,2,0,2,45826,50000,1456,48604,0,0,0,0,0.00,0.00,0.00,0.00
2014-05-09 14:50:00,2,47811,0,0.00,2,2,0,2,42312,50000,2323,48552,0,0,0,0,0.00,0.00,0.00,0.00
2014-05-09 15:00:00,2,48980,0,0.00,2,2,0,2,44689,50000,2043,50000,0,0,0,0,0.00,0.00,0.00,0.00
2014-05-09 15:10:00,2,46970,0,0.00,2,2,0,2,43689,50000,2745,46897,0,0,0,0,0.00,0.00,0.00,0.00
2014-05-09 15:20:00,2,44952,0,0.00,2,2,0,2,40682,50000,2937,44464,0,0,0,0,0.00,0.00,0.00,0.00
2014-05-09 15:30:00,2,46197,0,0.00,2,2,0,2,39944,50000,3155,47135,0,0,0,0,0.00,0.00,0.00,0.00
2014-05-09 15:40:00,2,49150,0,0.00,2,2,0,2,45055,50000,1520,50000,0,0,0,0,0.00,0.00,0.00,0.00
2014-05-09 15:50:00,2,40259,0,0.00,2,2,0,2,32861,49023,5295,38996,0,0,0,0,0.00,0.00,0.00,0.00
2014-05-09 16:00:00,2,45694,0,0.00,2,2,0,2,38142,50000,3332,45498,0,0,0,0,0.00,0.00,0.00,0.00
2014-05-09 16:10:00,2,47660,0,0.00,2,2,0,2,42331,50000,2121,47588,0,0,0,0,0.00,0.00,0.00,0.00
2014-05-09 16:20:00,2,45329,0,0.00,2,2,0,2,39532,50000,3309,45454,0,0,0,0,0.00,0.00,0.00,0.00
2014-05-09 16:30:00,2,49081,0,0.00,2,2,0,2,45850,50000,1458,50000,0,0,0,0,0.00,0.00,0.00,0.00
2014-05-09 16:40:00,2,48001,0,0.00,2,2,0,2,42817,50000,2515,49301,0,0,0,0,0.00,0.00,0.00,0.00
2014-05-09 16:50:00,2,47123,0,0.00,2,2,0,2,38445,50000,3533,48983,0,0,0,0,0.00,0.00,0.00,0.00
2014-05-09 17:00:00,2,47738,0,0.00,2,2,0,2,44556,50000,1982,48104,0,0,0,0,0.00,0.00,0.00,0.00
2014-05-09 17:10:00,2,47219,0,0.00,2,2,0,2,41457,50000,2775,48484,0,0,0,0,0.00,0.00,0.00,0.00
2014-05-09 17:20:00,2,46558,0,0.00,2,2,0,2,42006,49657,2384,46696,0,0,0,0,0.00,0.00,0.00,0.00
2014-05-09 17:30:00,2,43944,0,0.00,2,2,0,2,36113,50000,4271,44808,0,0,0,0,0.00,0.00,0.00,0.00
2014-05-09 17:40:00,2,46718,0,0.00,2,2,0,2,37743,50000,4200,49094,0,0,0,0,0.00,0.00,0.00,0.00
2014-05-09 17:50:00,2,45514,0,0.00,2,2,0,2,38554,50000,3333,45830,0,0,0,0,0.00,0.00,0.00,0.00
2014-05-09 18:00:00,2,47444,0,0.00,2,2,0,2,40537,50000,2855,48894,0,0,0,0,0.00,0.00,0.00,0.00
2014-05-09 18:10:00,2,47223,0,0.00,2,2,0,2,41250,50000,2776,47279,0,0,0,0,0.00,0.00,0.00,0.00
2014-05-09 18:20:00,2,43545,0,0.00,2,2,0,2,37542,50000,4263,42396,0,0,0,0,0.00,0.00,0.00,0.00
2014-05-09 18:30:00,2,42912,0,0.00,2,2,0,2,36906,50000,4287,42496,0,0,0,0,0.00,0.00,0.00,0.00
2014-05-09 18:40:00,2,44248,0,0.00,2,2,0,2,37545,48865,3785,45240,0,0,0,0,0.00,0.00,0.00,0.00
2014-05-09 18:50:00,2,46262,0,0.00,2,2,0,2,39713,50000,4221,48776,0,0,0,0,0.00,0.00,0.00,0.00
2014-05-09 19:00:00,2,41143,0,0.00,2,2,0,2,30011,50000,7066,44062,0,0,0,0,0.00,0.00,0.00,0.00
2014-05-09 19:10:00,2,45640,0,0.00,2,2,0,2,30907,50000,5799,47872,0,0,0,0,0.00,0.00,0.00,0.00
2014-05-09 19:20:00,2,6200,72,0.33,2,2,0,2,3236,19493,4984,3939,71,77,2,71,0.00,0.80,0.22,0.28
2014-05-09 19:30:00,2,2907,71,0.82,2,2,0,2,2446,3723,408,2690,71,71,0,71,0.25,2.25,0.56,0.70
2014-05-09 19:40:00,2,2602,71,1.61,2,2,0,2,1931,3542,530,2424,71,71,0,71,0.40,3.10,0.91,1.60
2014-05-09 19:50:00,2,3728,71,1.35,2,2,0,2,2909,4322,428,3796,71,71,0,71,0.25,3.80,0.99,1.30
2014-05-09 20:00:00,2,3238,71,0.66,2,2,0,2,2609,3951,408,3118,71,71,0,71,0.20,1.25,0.36,0.60
2014-05-09 20:10:00,2,5060,71,0.44,2,2,0,2,3180,6653,942,5032,71,71,0,71,0.15,0.70,0.21,0.52
2014-05-09 20:20:00,2,4281,72,0.95,2,2,0,2,2896,6265,1166,3988,71,74,1,71,0.30,1.55,0.47,0.93
2014-05-09 20:30:00,2,3534,71,0.82,2,2,0,2,2678,5218,814,3349,71,71,0,71,0.10,1.65,0.54,0.82
2014-05-09 20:40:00,2,3007,71,1.31,2,2,0,2,2615,3579,275,2960,71,71,0,71,0.55,2.35,0.63,1.20
2014-05-09 20:50:00,2,2583,71,1.34,2,2,0,2,1892,3068,374,2656,71,71,0,71,0.80,2.00,0.38,1.35
2014-05-09 21:00:00,2,1931,71,1.23,2,2,0,2,1434,2592,349,1943,71,71,0,71,0.60,2.15,0.48,1.18
2014-05-09 21:10:00,2,2789,71,1.15,2,2,0,2,2277,3571,352,2714,71,71,0,71,0.55,2.20,0.44,1.08
2014-05-09 21:20:00,2,3468,71,0.64,2,2,0,2,2979,3979,269,3454,71,71,0,71,0.20,1.30,0.37,0.53
2014-05-09 21:30:00,2,3882,71,0.33,2,2,0,2,2849,5310,909,3693,71,71,0,71,0.10,0.90,0.23,0.28
2014-05-09 21:40:00,2,7297,74,0.15,2,2,0,2,3880,12942,2423,6856,71,77,3,74,0.00,0.50,0.15,0.10
2014-05-09 21:50:00,2,4927,71,0.20,2,2,0,2,3345,7739,1449,4274,71,71,0,71,0.10,0.35,0.09,0.20
2014-05-09 22:00:00,2,9261,62,0.21,2,2,0,2,5666,16351,2873,8186,41,77,17,74,0.00,0.55,0.16,0.20
2014-05-09 22:10:00,2,11272,71,0.12,2,2,0,2,9116,15624,1734,10829,71,71,0,71,0.00,0.30,0.11,0.10
2014-05-09 22:20:00,2,14630,59,0.04,2,2,0,2,10809,18981,2445,14380,41,71,15,71,0.00,0.20,0.06,0.03
2014-05-09 22:30:00,2,27278,30,0.01,2,2,0,2,22825,41230,5756,23985,0,77,37,0,0.00,0.05,0.02,0.00
2014-05-09 22:40:00,2,27742,0,0.00,2,2,0,2,18831,40570,6709,25700,0,0,0,0,0.00,0.00,0.00,0.00
2014-05-09 22:50:00,2,27215,0,0.00,2,2,0,2,19578,35840,6324,25730,0,0,0,0,0.00,0.00,0.00,0.00
2014-05-09 23:00:00,2,22367,0,0.00,2,2,0,2,15865,30167,4438,21972,0,0,0,0,0.00,0.00,0.00,0.00
2014-05-09 23:10:00,2,20487,0,0.00,2,2,0,2,17898,25132,2370,19743,0,0,0,0,0.00,0.00,0.00,0.00
2014-05-09 23:20:00,2,24222,0,0.00,2,2,0,2,20996,32056,3175,23060,0,0,0,0,0.00,0.00,0.00,0.00
2014-05-09 23:30:00,2,27706,0,0.00,2,2,0,2,17681,39754,6882,27709,0,0,0,0,0.00,0.00,0.00,0.00
2014-05-09 23:40:00,2,29163,0,0.00,2,2,0,2,20704,38250,6033,30861,0,0,0,0,0.00,0.00,0.00,0.00
2014-05-09 23:50:00,2,31044,0,0.00,2,2,0,2,22471,41965,7193,27614,0,0,0,0,0.00,0.00,0.00,0.00
